Location: Conflans
(47.8163°N, 6.2099°E)
Time: 20:33:48
(UTC+00:00)

Daily predictions for brighter satellites

Satellite Brightness Start Highest point End
(mag) Time Altitude Azimuth Time Altitude Azimuth Time Altitude Azimuth
CZ-4C R/B 3.8 19:23:19 10° NW 19:29:39 39° NE 19:37:03 10° E
SL-4 R/B 3.0 19:29:49 10° WNW 19:33:57 44° SW 19:38:20 10° SE
SL-08 ROCKET BODY 4.4 19:30:26 10° N 19:36:22 84° E 19:42:14 10° S
USA 215 4.5 19:30:43 10° ENE 19:36:48 42° N 19:42:52 10° WNW
Cosmos 1151 Rocket 4.5 19:34:08 10° SE 19:37:20 20° E 19:40:33 10° NE
ATLAS 5 CENTAUR R/B 2.6 19:35:09 10° NW 19:40:32 60° NE 19:46:55 10° SE
CREW DRAGON DEMO-1 DEB 4.1 19:38:05 10° WNW 19:40:32 33° N 19:42:59 10° ENE
Cosmos 1844 3.8 19:37:46 10° S 19:43:21 55° ESE 19:48:53 10° NE
OBJECT-B 1.9 19:40:20 10° S 19:43:26 44° W 19:46:35 10° NNW
USA 308 4.3 19:39:39 10° WNW 19:43:38 36° N 19:47:38 10° ENE
Cosmos 1833 Rocket 4.0 19:47:49 10° NNW 19:52:43 29° NE 19:57:34 10° ESE
OE (NEXTSAT) 4.3 19:49:57 10° W 19:53:23 66° S 19:56:51 10° E
Intercosmos 24 3.8 19:50:44 10° S 19:54:26 54° E 19:57:56 10° NNE
Cosmos 1242 Rocket 3.0 19:53:46 10° SSE 19:57:09 41° E 20:00:31 10° NNE
Cosmos 1805 Rocket 3.6 19:55:03 10° N 19:59:24 82° W 20:03:46 10° S
Spot 2 Rocket 4.4 19:56:46 11° SE 20:01:03 35° ENE 20:05:37 10° N
SPOT 5 4.3 20:01:57 11° ESE 20:05:50 27° ENE 20:10:12 10° N
Cosmos 1633 Rocket 3.5 20:02:51 10° N 20:07:07 47° ENE 20:10:43 14° SSE
BREEZE-M DEB (TANK) 4.4 19:49:37 10° WSW 20:07:12 86° SSE 20:11:11 10° ENE
Cosmos 1386 Rocket 4.5 20:01:11 10° N 20:07:15 86° W 20:13:20 10° S
CZ-2C R/B 4.1 20:03:56 10° NNE 20:08:13 43° E 20:12:32 10° S
ARIANE 5 R/B 3.5 20:06:12 14° SE 20:09:26 33° ENE 20:13:20 10° N
Terra 3.5 20:06:40 11° ESE 20:09:56 20° ENE 20:13:22 10° NNE
USA 290 2.4 20:08:57 10° NNW 20:12:12 72° WSW 20:14:51 14° SSE
ERS-1 Rocket 4.0 20:10:41 14° ESE 20:14:20 31° ENE 20:18:43 10° N
IGS 5A 3.4 20:11:12 10° SSE 20:15:20 88° W 20:19:31 10° NNW
Cosmos 1745 Rocket 4.2 20:10:36 10° NNW 20:16:48 73° W 20:22:54 10° S
Cosmos 1470 Rocket 4.4 20:13:06 10° N 20:17:16 36° ENE 20:20:11 17° SE
Cosmos 1328 Rocket 4.1 20:14:51 12° SSE 20:18:35 41° E 20:22:45 10° NNE
Cosmos 1437 3.6 20:17:58 21° SE 20:18:50 25° E 20:21:14 10° NE
Cosmos 1709 Rocket 4.0 20:13:24 10° N 20:19:32 73° E 20:25:15 12° SSE
Cosmos 1933 3.3 20:15:31 10° S 20:19:33 87° W 20:23:37 10° N
Cosmos 1503 Rocket 3.9 20:15:23 10° SSW 20:20:32 75° ESE 20:25:45 10° NNE
Cosmos 1437 Rocket 4.0 20:18:43 10° SSW 20:22:26 44° WNW 20:26:15 10° N
X-37B 1.1 20:19:38 10° W 20:22:41 42° S 20:24:16 23° SE
USA 305 3.8 20:21:20 10° WNW 20:25:26 44° NNE 20:29:31 10° E
CARTOSAT-1 4.1 20:23:35 18° SE 20:26:25 44° ENE 20:30:32 10° N
Cosmos 1500 3.6 20:24:28 10° N 20:28:06 44° ENE 20:30:08 22° SE
Cosmos 2082 Rocket 3.5 20:23:19 10° NNW 20:28:08 28° NE 20:32:17 13° ESE
COSMOS 2406 3.7 20:23:10 10° NNW 20:28:39 47° NE 20:32:38 18° ESE
Cosmos 1933 Rocket 4.5 20:27:46 10° N 20:31:43 33° ENE 20:33:54 21° ESE
Ariane Rocket 4.5 20:27:38 10° SSW 20:32:12 34° W 20:36:48 10° NNW
Cosmos 1666 Rocket 3.6 20:29:16 10° NNW 20:33:41 78° W 20:37:21 14° S
Cosmos 2315 Rocket 4.0 20:32:47 10° S 20:39:09 79° E 20:45:34 10° N
Landsat 7 4.3 20:35:42 11° S 20:40:08 60° W 20:44:52 10° NNW
Cosmos 1782 2.7 20:36:20 11° S 20:40:09 87° E 20:44:11 10° N
USA 245 1.8 20:42:52 48° S 20:43:22 80° WSW 20:45:37 10° NNW
USA 306 3.6 20:40:32 10° WNW 20:44:43 51° NNE 20:47:59 16° E
Cosmos 1271 Rocket 4.0 20:46:42 24° ESE 20:47:30 25° E 20:50:50 10° NE
SPOT 1/Viking Rocket 3.7 20:45:30 16° S 20:49:38 73° WSW 20:54:51 10° NNW
Cosmos 1354 Rocket 4.3 20:47:16 10° SSW 20:52:29 71° WNW 20:57:45 10° NNE
SJ 16-02 2.2 20:52:10 27° SE 20:53:18 31° E 20:57:13 10° NE
Cosmos 2278 Rocket 2.5 20:50:06 17° S 20:54:04 45° ESE 20:59:26 10° NE
Resurs 01 Rocket 3.2 20:53:39 10° SSW 20:57:33 30° W 21:01:30 10° NNW
NOSS 3-4 (A) 4.2 20:51:19 10° NW 20:58:03 57° NE 21:03:32 19° ESE
NOSS 3-4 (C) 4.2 20:51:26 10° NW 20:58:09 57° NE 21:03:39 19° ESE
Cosmos 2228 Rocket 4.0 21:01:58 27° ESE 21:02:58 30° E 21:06:52 10° NNE
H-2A R/B 4.1 20:59:47 10° NNE 21:03:43 37° E 21:04:39 33° SE
Cosmos 1844 Rocket 4.4 20:58:53 10° WSW 21:03:57 35° NW 21:09:04 10° NNE
NOSS 3-3 (A) 3.9 21:01:52 10° SW 21:07:38 87° SE 21:14:18 10° NE
NOSS 3-3 (C) 3.9 21:01:58 10° SW 21:07:45 86° SE 21:14:25 10° NE
USA 307 3.2 21:06:17 10° WNW 21:10:33 63° NNE 21:12:47 26° E
Cosmos 1943 Rocket 4.2 21:11:10 12° E 21:11:10 12° E 21:12:38 10° ENE
ATLAS 2AS CENTAUR R/B 3.6 21:04:19 10° NW 21:11:32 46° NE 21:16:52 16° ESE
Cosmos 1151 Rocket 4.2 21:10:26 10° SSW 21:14:35 42° WNW 21:18:47 10° N
CREW DRAGON DEMO-1 DEB 2.7 21:12:32 10° WNW 21:15:10 60° NNE 21:15:13 60° NNE
BREEZE-M R/B 2.0 21:15:31 10° W 21:17:56 65° N 21:18:27 48° NE
Cosmos 1536 3.7 21:14:49 10° N 21:18:35 35° ENE 21:19:22 32° E
Cosmos 1812 2.8 21:16:50 29° SSW 21:18:41 75° W 21:22:34 10° N
CZ-4C R/B 3.0 21:11:40 10° NW 21:18:53 77° SW 21:23:48 27° SSE
USA 215 4.3 21:12:57 10° E 21:19:02 43° N 21:25:08 10° WNW
Meteor 1-10 Rocket 4.2 21:17:12 28° S 21:20:11 67° E 21:25:48 10° NNE
Iridium 4 Rocket 3.7 21:18:17 26° S 21:21:40 84° E 21:27:38 10° N
USA 308 3.0 21:19:48 10° WNW 21:24:06 73° NNE 21:25:49 35° ESE
ATLAS 5 CENTAUR R/B 3.5 21:20:01 10° WNW 21:25:07 33° WSW 21:28:41 20° SSW
Cosmos 1538 Rocket 4.1 21:21:06 10° NNW 21:26:29 78° WSW 21:28:51 34° S
Meteor 1-5 Rocket 4.3 21:22:35 10° NNW 21:27:57 65° W 21:30:46 28° S
Cosmos 2084 3.7 21:25:29 10° SW 21:29:37 67° NW 21:33:53 10° NE
Cosmos 158 Rocket 3.8 21:26:03 10° NNW 21:30:57 74° ENE 21:32:38 41° SE
SL-24 DEB 4.2 21:30:18 42° SSE 21:31:44 69° E 21:36:19 10° N
Milstar 3 4.5 21:23:28 10° SW 21:31:52 22° S 21:32:19 22° S
Cosmos 1666 2.9 21:30:21 10° NNW 21:34:02 60° W 21:34:56 44° SSW
Cosmos 1515 Rocket 4.1 21:34:00 22° SSW 21:36:41 55° WNW 21:41:01 10° N
Cosmos 1833 Rocket 3.0 21:31:27 10° NW 21:37:01 59° WSW 21:39:27 33° S
Cosmos 1869 Rocket 3.5 21:36:01 10° N 21:40:22 71° E 21:41:16 52° SE
Cosmos 1743 3.6 21:38:58 10° N 21:42:31 34° ENE 21:42:43 33° E
SPOT 5 3.6 21:41:10 27° SSW 21:43:36 49° W 21:48:42 10° NNW
Cosmos 1680 Rocket 3.9 21:38:42 10° NNW 21:43:58 55° ENE 21:45:47 37° ESE
ARIANE 5 R/B 4.2 21:43:44 18° SW 21:45:55 27° W 21:49:39 10° NW
Terra 2.1 21:45:33 37° SSW 21:47:16 60° W 21:52:00 10° NNW
Cosmos 2297 4.4 21:50:18 33° ESE 21:50:44 33° ESE 21:55:46 10° NE
ERS-1 Rocket 3.9 21:50:41 25° SSW 21:53:01 39° W 21:57:44 10° NNW
Cosmos 2154 Rocket 4.0 21:51:08 10° N 21:57:30 82° W 22:00:11 37° S
Cosmos 1707 Rocket 3.8 21:59:37 49° ESE 21:59:49 49° E 22:04:04 10° NNE
ALOS 2 4.1 21:59:30 23° E 22:00:26 25° ENE 22:04:01 10° N
Spot 4 4.4 22:01:02 39° ESE 22:02:11 46° ENE 22:06:51 10° N
USA 305 2.9 22:01:20 10° WNW 22:05:34 63° SW 22:05:35 63° SW
Cosmos 2082 Rocket 2.4 22:07:05 10° NW 22:12:36 59° WSW 22:14:07 44° SSW
COSMOS 2406 4.4 22:07:50 10° NW 22:12:46 31° WSW 22:14:42 25° SW
Meteor 1-27 Rocket 3.9 22:12:02 35° SSW 22:14:36 74° WNW 22:20:33 10° N
Cosmos 962 Rocket 4.4 22:08:55 10° N 22:15:05 83° E 22:17:03 46° SSE
Cosmos 44 3.7 22:11:19 10° NW 22:16:46 67° NE 22:18:21 44° ESE
Nadezhda 1 Rocket 4.3 22:16:05 30° SSW 22:19:20 65° WNW 22:25:35 10° N
Cosmos 923 Rocket 4.2 22:14:17 10° NNW 22:19:28 62° WSW 22:20:38 49° SSW
Cosmos 1898 Rocket 3.5 22:20:54 56° SSE 22:21:50 69° ESE 22:27:09 10° NNE
Cosmos 1271 Rocket 4.5 22:21:48 22° WSW 22:23:23 29° WNW 22:26:55 10° N
USA 306 3.5 22:20:35 10° WNW 22:24:02 43° WSW 22:24:02 43° WSW
Cosmos 1544 3.8 22:25:58 10° NNW 22:29:08 46° WNW 22:29:08 46° WNW
Gbstr 26 Del rocket 4.2 22:22:29 10° WNW 22:29:56 74° NNE 22:34:28 19° E
SJ 16-02 3.0 22:29:06 17° WSW 22:31:50 31° WNW 22:35:50 10° N
Cosmos 1733 Rocket 2.8 22:27:50 10° N 22:32:12 83° E 22:32:19 81° ESE
Meteor 1-19 Rocket 4.2 22:33:42 53° SE 22:34:27 58° E 22:39:45 10° NNE
Cosmos 2181 Rocket 4.0 22:34:44 49° SSE 22:36:19 69° E 22:42:25 10° NNE
Cosmos 1515 3.9 22:38:29 67° N 22:38:29 67° N 22:41:49 10° N
Cosmos 2278 Rocket 3.6 22:33:07 10° WSW 22:38:17 35° NW 22:43:28 10° NNE
Cosmos 1238 Rocket 3.7 22:32:08 10° N 22:38:32 90° ENE 22:39:54 55° S
Okean 1 3.4 22:40:56 73° NNE 22:40:56 73° NNE 22:44:36 10° N
Cosmos 990 Rocket 4.2 22:40:06 44° SW 22:41:43 69° WNW 22:46:59 10° NNE
Cosmos 1340 Rocket 3.6 22:39:35 10° NNW 22:43:27 42° W 22:43:27 42° W
Cosmos 1908 Rocket 4.2 22:40:39 10° N 22:44:57 44° ENE 22:45:11 43° E
Cosmos 2366 rocket 3.9 22:41:46 10° N 22:47:59 83° E 22:49:36 52° SSE
Cosmos 2369 Rocket 2.9 22:48:04 37° ESE 22:48:08 37° ESE 22:53:17 10° NE
NOSS 3-4 (A) 4.4 22:42:22 10° NW 22:48:58 43° WSW 22:50:58 37° SSW
NOSS 3-4 (C) 4.4 22:42:28 10° NW 22:49:05 44° WSW 22:51:05 37° SSW
Cosmos 372 Rocket 4.2 22:49:29 49° ESE 22:49:29 49° ESE 22:54:24 10° NNE
Cosmos 2341 Rocket 4.2 22:43:28 10° NNW 22:49:48 65° W 22:51:45 44° SSW
USA 307 4.4 22:46:30 10° WNW 22:48:54 26° W 22:48:54 26° W
Cosmos 967 Rocket 4.3 22:49:56 49° SSW 22:51:42 78° ESE 22:58:00 10° NE
Cosmos 1943 Rocket 2.1 22:52:38 61° S 22:53:33 74° ESE 22:59:09 10° NNE
Meteor 2-9 Rocket 4.2 22:49:35 10° NNW 22:55:26 83° W 22:56:34 59° S
SeaSat 1 3.7 22:51:33 10° NE 22:55:08 27° E 22:55:08 27° E
Cosmos 1461 4.0 22:58:11 39° E 22:58:11 39° E 23:01:39 10° NE
USA 215 3.3 22:57:12 23° ESE 23:01:36 76° NNE 23:08:08 10° NW
ATLAS 2AS CENTAUR R/B 2.9 22:55:35 10° NW 23:02:43 56° WSW 23:04:17 46° SSW
CZ-4C R/B 4.5 23:01:28 10° WNW 23:06:50 21° WSW 23:08:59 19° SW
RESURS DK-1 3.7 23:03:10 10° NNW 23:06:58 33° NE 23:07:43 31° ENE
Cosmos 2218 Rocket 4.0 23:01:13 10° NNW 23:07:27 71° W 23:09:04 51° SSW
Cosmos 1975 3.1 23:04:47 10° NNW 23:08:17 64° NW 23:08:17 64° NW
SL-24 R/B - RUBIN 2 4.2 23:04:07 10° NW 23:09:19 51° WSW 23:09:19 51° WSW
Meteor 2-4 Rocket 3.7 23:09:23 58° SSE 23:10:20 69° E 23:15:58 10° NNE
Cosmos 489 Rocket 4.4 23:04:31 10° NNW 23:10:46 75° WSW 23:12:09 55° S
Cosmos 1862 Rocket 4.0 23:13:56 52° W 23:14:06 52° WNW 23:18:20 10° N
Cosmos 1703 Rocket 3.9 23:14:30 55° ENE 23:14:30 55° ENE 23:18:32 10° NNE
Cosmos 1782 Rocket 4.0 23:12:09 10° N 23:16:31 51° ENE 23:16:38 51° E
Cosmos 1656 Rocket 4.2 23:17:56 40° ESE 23:18:02 40° ESE 23:23:09 10° NE
Cosmos 2084 Rocket 4.0 23:17:21 10° NW 23:20:45 49° W 23:20:45 49° W
ERBS 4.1 23:19:10 10° NW 23:20:55 28° NW 23:20:55 28° NW
Cosmos 1937 Rocket 4.1 23:26:02 38° WSW 23:27:30 48° WNW 23:32:32 10° NNE
Nadezhda 3 Rocket 4.1 23:28:06 51° SSE 23:29:31 65° E 23:35:41 10° NNE
Cosmos 1833 4.4 23:27:18 10° NNW 23:33:03 67° ENE 23:34:47 45° SE
ATLAS CENTAUR R/B 3.4 23:34:53 16° ENE 23:34:53 16° ENE 23:36:04 10° ENE
Okean 3 4.1 23:35:42 47° ENE 23:35:42 47° ENE 23:39:29 10° NNE
Thor Agena Rocket 3.4 23:30:44 10° NNE 23:36:00 81° ESE 23:36:39 68° S
ALOS 2 3.5 23:36:53 38° W 23:36:53 38° W 23:40:43 10° NNW
Cosmos 1818 3.9 23:31:41 10° NW 23:36:53 48° WSW 23:36:53 48° WSW
USA 281 4.3 23:32:05 13° ESE 23:37:21 39° NE 23:43:20 10° NNW
Cosmos 1607 4.1 23:36:39 51° SSE 23:37:38 56° ESE 23:43:57 10° NE
Cosmos 1048 Rocket 3.9 23:33:02 10° NNW 23:38:25 83° ENE 23:39:11 66° SE
DNEPR-1 R/B 4.4 23:39:47 37° WSW 23:41:49 60° NW 23:46:39 10° NNE
Cosmos 2298 Rocket 4.0 23:41:55 63° SE 23:42:21 66° ESE 23:47:38 10° NNE
Okean 1-7 3.0 23:42:48 73° NW 23:42:48 73° NW 23:46:51 10° N
PSLV R/B 3.9 23:40:58 10° NNE 23:45:08 56° E 23:45:08 56° E
Resurs 1-4 Rocket 4.2 23:48:41 10° NE 23:51:39 15° E 23:53:19 13° ESE
